Погода в Соколе

Россия / Сахалинская область     47°14′33″N   142°44′54″E
темп.,
°C
ветер,
м/с
пор.,
м/с
влажн.,
%
обл.,
%
осадки,
мм/ч
давл.,
гПа
погр.,
м
25 мая, ср
ср2523:00+8ююз41093100 0.0 1013533
02:00+8ю3993100 0.0 1013451
05:00+8ю41196100 0.0 1012361
08:00+9ююз51389100 0.0 1011475
11:00+12ююз598098 0.1 1010603
14:00+12ююз3586100 0.0 1009423
17:00+11ссв2386100 0.1 1010360
20:00+9ссв129477 0.1 1010117
26 мая, чт
чт2623:00+8св129899 0.1 1011109
02:00+6ссв1298100 0.0 1012108
05:00+6св1298100 0.0 1012111
08:00+8всв1191100 0.0 1011148
11:00+15юз247490 0.0 1010720
14:00+19юз245694 0.0 10081105
17:00+19юз145622 0.0 10071005
20:00+13ююз257953 0.0 1008233
27 мая, пт
пт2723:00+9ююз389197 0.0 1008150
02:00+9ююз2487100 0.0 100868
05:00+8ю0085100 0.0 100812
08:00+11ссв227692 0.0 100892
11:00+14ссв2264100 0.0 1007339
14:00+14ссв3267100 0.1 1006391
17:00+9ссв3486100 0.1 1006291
20:00+6ссв2396100 0.0 1006213
28 мая, сб
сб2823:00+7всв1199100 0.9 100589
02:00+6св2299100 7.8 1004134
05:00+6всв1199100 12.1 100389
08:00+9вюв1298100 0.5 1003111
11:00+10св1299100 0.9 1003122
14:00+9ссв1199100 1.3 100385
17:00+9св1298100 2.0 1003165
20:00+7св2399100 2.1 1004132
29 мая, вс
вс2923:00+6ссв2499100 5.3 1005174
02:00+5с3599100 0.7 1005257
05:00+5с3699100 1.1 1006263
08:00+5с3899100 1.1 1007354
11:00+5с41198100 2.8 1008490
14:00+5с31099100 0.5 1008436
17:00+6с3899100 0.7 1009429
20:00+5с3799100 0.1 1011387